GFSNIL_prec_cloud_003.txt.gz
Cloud_Cover
0 0 0 0 0 2 5 5 5 5 5 5 5 5 5 5 5 5 5 5 0 0
0 0 0 0 5 5 5 4 5 3 0 5 5 5 5 5 5 6 6 5 5 0
0 0 2 35 49 52 5 5 1 2 5 5 5 5 5 5 5 5 5 5 2 0
0 54 85 70 91 5 3 0 3 5 10 5 6 5 5 5 8 5 5 0 0 0
68 76 23 9 2 0 5 8 4 18 69 56 19 14 60 20 5 0 0 0 0 0
21 5 0 5 5 5 5 7 76 79 83 69 79 40 5 0 0 0 0 0 0 0
5 2 5 5 58 70 83 100 100 98 70 51 5 5 0 0 0 0 0 0 0 0
5 5 32 94 82 94 100 98 78 72 34 5 2 0 0 0 0 0 0 0 0 0
7 44 100 93 100 100 88 74 78 5 1 0 0 0 0 0 0 0 0 0 0 1
96 94 100 100 100 100 92 13 4 2 0 3 5 4 0 0 0 0 0 3 5 5
99 100 100 100 96 73 55 5 5 5 14 5 0 0 0 0 0 4 5 5 10 31
100 100 100 99 100 98 8 5 37 45 5 0 0 0 0 1 5 5 5 66 100 100
99 100 100 100 98 19 26 84 26 5 0 0 0 0 2 26 5 5 6 14 17 34
100 100 100 60 50 100 99 12 4 5 5 4 0 0 5 64 97 92 41 9 28 54

GFSNIL_prec_cloud_006.txt.gz
Cloud_Cover
5 5 5 4 0 0 0 4 0 5 0 0 3 0 0 0 2 5 5 4 0 0
5 3 4 0 0 0 1 4 5 4 5 1 0 0 0 4 5 5 5 5 5 0
5 0 0 0 0 5 5 5 5 3 0 0 0 0 5 5 5 5 5 5 3 0
3 0 0 3 44 14 8 4 1 0 4 2 5 5 5 5 5 5 5 4 0 0
0 0 5 66 9 5 0 4 4 5 5 12 5 5 5 5 5 4 0 0 0 0
0 5 16 54 3 0 3 5 8 7 61 31 50 5 5 5 1 0 0 0 1 0
5 5 5 3 0 10 32 68 44 45 76 49 12 5 4 0 0 0 1 3 0 0
5 5 5 4 90 88 99 59 92 92 78 5 5 5 3 0 0 3 1 0 0 0
5 5 18 98 100 100 80 97 100 84 5 6 5 5 0 0 5 0 0 0 5 5
5 29 100 85 80 100 98 97 98 66 79 11 5 5 5 0 0 0 0 3 5 5
67 86 91 100 82 90 100 82 100 99 12 5 5 3 0 4 5 2 0 1 5 5
99 98 66 40 79 66 99 100 86 6 16 5 5 0 4 5 5 5 1 0 5 5
7 17 58 72 99 100 98 34 5 37 5 5 5 4 3 24 34 5 5 5 5 5
82 7 92 100 100 58 5 23 59 14 5 5 4 0 5 49 98 77 15 22 50 5

GFSNIL_prec_cloud_009.txt.gz
Cloud_Cover
0 5 5 78 88 5 4 0 0 0 0 4 0 0 0 0 0 0 2 3 0 0
2 4 5 5 5 0 0 0 0 0 4 1 0 0 0 2 5 5 5 5 5 5
5 5 4 4 3 0 0 0 5 5 2 3 0 1 5 5 5 5 5 5 5 0
5 5 5 5 0 0 4 5 5 3 1 2 5 5 5 5 5 5 5 5 4 1
5 5 5 5 2 5 6 94 5 1 4 5 5 5 5 5 5 5 5 5 4 0
5 5 5 5 5 9 49 1 1 5 21 52 5 5 5 4 5 5 5 2 0 0
5 5 5 5 5 5 5 4 5 5 5 12 5 4 5 5 5 5 3 0 0 0
5 5 5 5 64 5 8 5 5 81 64 5 4 5 5 5 5 4 1 0 0 0
5 5 44 82 8 18 23 94 28 5 3 5 5 58 6 5 4 2 0 0 0 0
5 79 92 82 96 86 58 6 2 5 5 63 31 5 5 5 5 0 0 0 0 0
81 91 96 81 72 34 3 5 5 18 77 29 5 5 5 5 5 0 0 0 0 3
98 95 65 15 5 5 4 5 55 78 6 5 5 4 0 5 5 5 3 0 5 13
96 92 5 5 5 5 24 100 26 10 5 5 3 1 3 5 5 5 5 71 19 6
100 47 5 5 5 100 61 5 5 6 5 5 5 2 4 10 65 5 100 15 7 5

GFSNIL_prec_cloud_012.txt.gz
Cloud_Cover
5 5 0 0 2 5 8 5 8 2 0 0 0 0 0 0 0 0 0 0 4 5
5 5 5 5 5 1 5 4 0 0 0 0 3 5 2 0 0 4 5 5 5 5
5 5 5 5 5 5 0 0 0 0 0 5 5 0 0 5 5 9 76 30 5 5
70 5 5 5 5 5 4 4 5 5 5 5 2 0 3 5 34 98 39 5 1 5
85 99 72 5 5 5 5 5 5 5 5 5 1 5 21 90 9 5 1 0 5 5
100 100 79 5 5 5 5 5 5 5 5 5 24 70 5 4 0 0 0 5 2 0
100 100 70 5 5 5 5 5 5 5 5 13 6 5 0 0 0 5 5 5 5 1
100 82 5 22 33 5 5 8 60 5 5 5 1 0 0 0 5 5 5 5 4 5
81 6 78 79 8 5 20 98 5 5 5 0 0 0 2 5 5 5 5 5 5 3
13 81 74 61 13 25 91 7 5 3 5 0 0 4 5 5 5 5 5 5 5 5
87 94 69 24 77 86 5 5 5 2 0 4 5 4 2 5 5 5 5 5 5 5
74 30 69 92 77 5 5 5 5 5 5 5 1 5 5 36 5 5 5 5 5 5
79 57 89 51 6 5 5 5 5 5 1 5 5 5 5 5 66 5 5 82 11 19
64 50 49 5 5 5 5 5 3 5 3 5 5 5 5 19 67 5 98 12 31 5

GFSNIL_prec_cloud_015.txt.gz
Cloud_Cover
100 85 63 0 0 5 5 5 4 5 5 5 5 6 0 0 0 0 0 0 0 0
100 100 5 5 5 5 5 5 5 5 4 2 5 5 1 0 0 0 0 0 5 5
99 11 48 43 9 5 5 5 5 5 5 5 5 5 5 0 0 1 2 0 0 0
29 81 90 90 89 76 24 5 14 5 5 5 5 5 5 2 5 5 5 2 0 0
5 66 85 80 100 100 49 56 54 5 17 5 5 5 5 5 5 5 5 1 0 0
83 99 91 75 98 87 65 75 63 75 5 5 5 5 5 5 5 5 0 0 0 0
100 100 100 76 86 36 99 94 83 45 5 5 55 5 5 5 3 3 2 5 0 0
100 100 93 11 42 100 100 96 74 5 5 76 70 5 5 5 5 5 4 0 0 0
100 96 5 53 100 100 86 67 66 31 82 83 5 2 5 5 5 0 5 0 0 0
75 10 94 100 95 79 70 90 74 98 61 4 5 5 4 5 5 5 0 0 0 5
42 100 100 93 69 96 89 82 97 9 5 5 4 5 2 5 5 5 5 0 5 5
100 100 99 100 100 70 91 45 5 5 3 5 5 2 0 5 5 5 5 2 6 73
100 100 98 64 68 48 5 5 2 5 5 5 2 0 3 5 38 27 18 99 100 96
95 94 79 64 8 5 5 4 5 5 3 0 0 0 4 5 41 65 100 100 100 55

GFSNIL_prec_cloud_018.txt.gz
Cloud_Cover
63 100 100 77 100 53 5 5 5 5 5 5 5 5 5 0 0 0 0 0 0 0
98 100 100 98 99 5 5 5 5 5 5 5 5 5 5 4 0 5 4 0 0 0
100 100 100 100 40 93 86 88 81 95 88 60 60 26 5 5 5 5 5 0 0 0
100 100 100 99 100 81 95 100 100 99 86 86 70 5 5 5 5 5 5 0 0 0
100 100 99 100 98 94 100 100 89 88 69 91 45 28 5 5 5 5 1 0 0 0
100 98 76 87 99 100 100 84 97 72 96 95 74 8 5 5 5 5 0 0 0 0
75 86 98 100 100 100 99 90 87 96 100 71 38 5 5 5 5 5 2 0 0 0
98 100 100 100 100 100 97 80 84 100 67 83 67 40 5 5 4 5 5 0 0 0
100 100 100 100 100 100 78 62 100 78 97 86 76 6 5 2 5 5 3 0 0 1
100 100 100 97 100 100 65 100 97 100 98 77 60 5 5 5 5 5 5 0 5 5
100 100 100 100 100 100 100 100 99 100 87 35 51 5 5 5 5 5 4 5 5 50
100 100 100 100 100 100 100 100 100 82 53 12 5 5 5 5 5 5 5 5 54 84
100 100 100 100 100 100 100 88 34 5 5 5 5 5 5 5 5 5 5 11 83 91
100 100 100 100 100 100 99 58 25 14 5 5 5 5 5 5 5 5 44 93 96 93

GFSNIL_prec_cloud_021.txt.gz
Cloud_Cover
98 48 24 96 100 100 100 100 6 5 5 5 5 5 5 5 5 5 5 5 0 0
70 99 100 82 100 100 100 97 5 6 8 9 5 5 12 5 5 5 5 5 0 0
100 45 100 95 100 100 100 51 17 70 75 78 70 66 28 5 47 6 5 5 3 5
92 100 100 100 100 100 100 36 50 16 67 88 39 5 5 40 51 5 5 5 5 5
100 100 100 100 100 100 96 67 94 47 16 18 7 96 71 77 38 5 5 5 5 3
100 100 100 100 100 99 76 69 66 58 73 86 5 31 88 97 5 9 6 5 5 0
100 100 100 100 100 83 87 89 83 90 100 84 39 63 99 35 47 56 5 5 4 0
100 100 100 100 71 100 100 100 100 100 99 100 97 100 64 60 79 21 5 5 3 0
100 100 100 99 100 96 100 100 100 100 100 100 100 100 96 97 55 5 5 5 5 0
100 88 90 92 100 100 100 100 100 100 100 100 100 100 84 79 5 5 5 5 5 3
100 97 89 100 100 100 100 100 100 100 100 100 100 100 90 14 6 5 5 5 3 5
100 100 100 100 100 100 100 100 100 100 100 100 100 97 75 34 5 5 5 0 0 5
100 100 100 100 100 100 100 100 100 100 100 100 100 68 28 5 5 2 2 4 5 5
100 100 100 100 100 100 100 100 100 100 100 100 65 12 5 5 5 5 5 5 5 5

GFSNIL_prec_cloud_024.txt.gz
Cloud_Cover
81 19 9 92 100 100 47 49 97 91 100 35 2 5 9 5 5 5 5 5 5 5
82 26 100 100 100 98 68 90 100 100 100 5 5 5 5 39 74 11 5 5 5 61
92 100 100 100 92 79 100 100 100 100 22 5 5 5 5 10 32 8 73 37 47 8
100 100 100 90 100 100 100 100 100 100 6 51 27 5 77 83 84 14 5 5 7 19
100 100 100 100 100 100 100 100 100 42 70 97 100 76 64 59 67 5 5 84 73 6
100 100 100 100 100 100 100 100 100 70 96 97 99 68 83 97 95 44 29 100 92 100
100 100 100 100 100 100 100 100 86 80 86 74 92 98 100 96 98 69 70 90 100 96
100 100 100 100 100 100 100 100 100 94 75 85 100 100 98 99 100 100 100 100 100 89
100 100 100 100 100 100 100 76 70 71 100 100 100 100 100 100 100 98 98 90 78 16
100 100 100 100 100 100 97 99 100 100 100 100 100 100 100 100 100 99 92 47 5 5
100 100 100 100 100 100 100 100 100 100 100 100 100 100 100 100 89 99 53 5 5 5
100 100 100 100 100 100 100 100 100 100 100 100 100 96 52 100 74 54 22 5 5 1
100 100 100 100 100 100 100 100 100 100 100 100 99 100 100 54 51 26 76 38 8 5
100 100 100 90 76 100 100 100 100 100 100 100 87 48 80 54 70 70 45 95 52 31

GFSNIL_prec_cloud_027.txt.gz
Cloud_Cover
5 5 5 82 100 71 19 17 100 100 100 100 73 89 100 5 5 5 5 5 5 5
5 7 17 34 84 100 48 97 100 100 100 100 99 73 100 5 5 5 5 5 5 5
5 5 19 94 87 100 100 100 100 100 100 100 98 100 92 5 11 5 5 26 19 5
3 5 97 90 84 100 100 100 100 100 100 100 100 100 62 19 30 70 62 34 65 84
0 53 100 100 100 100 100 100 100 100 100 100 100 81 89 100 100 77 46 67 93 96
0 100 100 100 100 100 100 100 100 100 100 100 100 100 100 79 83 98 100 100 89 67
100 100 100 100 100 100 100 100 100 100 100 100 100 100 72 74 97 100 100 99 100 77
100 100 100 100 100 100 100 100 100 100 100 100 100 88 73 99 100 100 100 99 94 100
100 100 100 100 100 100 100 100 100 100 100 100 100 100 100 100 100 100 100 100 100 98
100 100 100 100 100 100 100 100 100 100 100 100 91 100 100 100 100 100 100 92 100 100
100 100 100 100 100 100 100 100 100 100 100 100 98 100 100 99 97 99 100 100 100 100
100 100 100 100 100 100 100 100 100 100 100 100 100 100 98 100 100 100 100 100 100 100
100 100 100 100 100 100 100 100 100 100 100 100 99 85 73 98 100 100 89 85 61 98
100 100 100 100 100 100 100 100 96 100 100 99 29 42 61 63 81 53 78 100 97 100

GFSNIL_prec_cloud_030.txt.gz
Cloud_Cover
0 3 5 5 5 5 60 15 95 100 100 100 100 100 87 100 23 49 79 5 5 5
0 0 0 5 16 7 5 25 91 100 98 48 100 100 99 100 100 56 76 5 5 5
2 0 0 2 5 17 74 91 100 100 94 100 100 100 96 100 100 99 100 74 11 5
3 1 1 4 19 76 99 100 100 100 100 100 100 100 100 100 100 100 100 72 96 92
0 4 78 40 46 100 100 100 100 100 100 100 100 100 100 100 100 100 100 95 100 73
0 0 49 16 77 98 100 94 100 100 100 100 100 100 100 100 100 100 92 89 81 100
4 27 19 37 18 99 100 100 100 100 100 100 100 100 100 100 100 100 100 92 98 98
82 98 95 82 85 100 100 100 100 100 100 100 100 100 100 100 100 100 100 100 98 74
100 100 100 99 100 100 100 100 100 100 100 100 100 100 100 100 100 100 100 79 100 55
100 100 100 100 100 100 100 100 100 100 100 100 100 100 100 100 100 100 100 94 74 37
100 100 100 100 100 100 100 100 100 100 100 100 100 100 100 100 100 100 100 65 100 55
100 100 100 100 100 100 100 100 100 100 100 100 100 100 100 100 100 100 97 79 100 88
100 100 100 100 100 100 100 100 100 100 100 100 100 100 100 100 98 99 100 100 72 30
100 100 100 100 100 100 100 100 100 100 100 99 100 99 100 100 97 100 100 99 5 0

GFSNIL_prec_cloud_033.txt.gz
Cloud_Cover
89 40 5 62 40 14 5 5 5 5 24 67 27 66 80 100 100 100 100 100 95 92
33 37 17 43 86 42 96 75 6 5 5 25 99 100 90 98 100 100 100 100 76 100
63 81 95 100 98 92 94 98 100 6 5 43 90 100 100 100 100 100 100 100 100 100
72 28 22 19 22 5 64 100 100 47 21 64 100 100 100 100 100 100 100 100 100 100
33 96 100 98 82 97 33 80 100 100 100 100 100 100 100 100 100 100 100 100 100 100
62 44 75 92 100 100 100 87 89 100 100 100 100 100 100 100 100 100 100 100 100 100
100 100 100 100 100 100 100 100 83 97 100 100 100 100 100 100 100 100 100 100 100 100
100 100 100 100 100 100 100 85 97 90 100 100 100 100 100 100 100 100 100 100 100 100
100 100 100 100 100 100 100 100 100 100 100 100 100 100 100 100 100 100 100 100 100 100
100 100 100 100 100 100 100 100 100 100 100 100 100 100 100 100 100 100 100 100 100 100
100 100 100 100 100 100 100 100 100 100 100 100 100 100 100 100 100 100 100 100 100 100
100 100 100 100 100 100 100 100 100 100 100 100 100 100 100 100 100 100 92 75 100 100
100 100 100 100 100 100 100 100 100 100 100 100 100 100 100 100 98 100 100 86 78 86
100 100 100 100 100 100 100 100 100 100 100 100 100 100 100 97 100 100 100 87 69 44

GFSNIL_prec_cloud_036.txt.gz
Cloud_Cover
30 61 39 69 52 53 23 24 97 95 58 94 90 88 20 94 100 100 100 100 100 96
0 13 15 3 1 0 8 62 99 41 54 72 100 100 100 100 100 100 100 100 100 100
0 5 8 11 19 1 0 3 5 38 58 35 56 85 95 100 100 100 100 100 100 100
14 27 50 52 23 16 18 38 100 100 100 100 100 100 92 100 100 100 100 100 100 100
92 82 66 84 65 73 62 64 100 100 100 100 100 100 100 100 100 100 100 100 100 100
100 100 100 100 100 100 100 100 100 100 100 100 100 100 100 100 100 100 100 100 100 100
98 100 100 100 100 100 100 100 100 100 100 100 100 100 100 100 100 100 100 100 100 100
100 100 100 100 100 100 100 100 100 100 100 100 100 100 100 100 100 100 100 100 100 100
100 100 100 100 100 100 100 100 100 100 100 100 100 100 100 100 100 100 100 100 100 100
100 100 100 100 100 100 100 100 100 100 100 100 100 100 100 100 100 100 100 100 100 100
100 100 100 100 100 100 100 100 100 100 100 100 100 100 100 100 100 100 100 100 100 100
100 100 100 100 100 100 100 100 100 100 100 100 100 100 100 100 100 100 100 100 100 100
100 100 100 100 100 100 100 100 100 100 100 100 100 100 100 100 100 100 83 100 100 100
100 100 100 100 100 100 100 100 100 100 100 100 100 100 100 97 99 100 100 100 96 83

GFSNIL_prec_cloud_039.txt.gz
Cloud_Cover
31 57 98 86 100 100 100 100 100 100 100 100 59 35 99 100 81 100 100 100 100 100
5 4 5 4 33 59 84 92 96 89 98 97 76 45 81 80 87 99 100 100 100 100
0 0 0 8 28 42 36 50 74 76 99 94 99 100 100 89 90 100 100 100 100 100
53 49 54 92 95 97 85 88 89 90 72 52 77 91 100 100 100 100 100 100 100 100
5 99 100 100 100 100 100 100 100 100 100 100 100 100 100 100 100 100 100 100 100 100
5 48 70 96 100 100 100 100 100 85 99 100 100 100 100 100 100 100 100 100 100 100
22 100 100 100 100 100 100 99 100 100 84 85 100 100 100 100 100 100 100 100 100 100
15 46 62 100 100 100 100 100 100 100 100 100 100 100 100 100 100 100 100 100 100 100
63 100 100 100 100 100 100 100 100 100 100 100 100 100 100 100 100 100 100 100 100 100
100 100 100 100 100 100 100 100 100 100 100 100 100 100 100 100 100 100 100 100 100 100
100 100 100 100 100 100 100 100 100 100 100 100 100 100 100 100 100 100 100 100 100 100
100 100 100 100 100 100 100 100 100 100 100 100 100 100 100 100 100 100 100 100 100 100
100 100 100 100 100 100 100 100 100 100 100 100 100 100 100 100 100 100 100 100 100 100
100 100 100 100 100 100 100 100 100 100 100 100 100 100 100 100 100 100 100 100 100 100

GFSNIL_prec_cloud_042.txt.gz
Cloud_Cover
55 61 40 16 15 13 35 84 100 100 100 100 100 100 100 100 100 100 100 100 100 100
9 6 5 5 4 4 4 1 7 96 100 100 100 100 100 100 100 100 100 100 100 100
5 1 0 0 0 1 1 1 13 81 100 100 100 100 100 100 100 100 100 100 100 100
0 0 0 12 67 80 100 100 100 100 100 100 100 100 100 100 100 100 100 100 100 100
0 0 0 0 3 47 100 96 100 100 100 100 100 100 100 100 100 100 100 100 100 100
0 2 10 9 33 74 76 100 98 100 100 100 100 100 100 100 100 100 100 100 100 100
0 2 9 4 21 100 100 90 100 100 100 100 100 98 100 100 100 100 100 100 100 100
26 19 42 94 97 100 97 93 99 100 100 100 100 100 100 100 100 100 100 100 100 100
67 100 100 100 100 100 100 100 100 100 100 100 100 100 100 100 100 100 100 100 100 100
92 99 100 98 100 100 100 100 100 100 100 100 100 100 100 100 100 100 100 100 100 100
100 100 91 100 100 100 100 100 100 100 100 100 100 100 100 100 100 100 100 100 100 100
100 100 100 100 100 100 100 100 100 100 100 100 100 100 100 100 100 100 100 100 100 100
100 100 100 100 100 100 100 100 100 100 100 100 100 100 100 100 100 100 100 100 100 100
100 100 100 100 100 100 100 100 100 100 100 100 100 100 100 100 100 92 100 100 100 100

GFSNIL_prec_cloud_045.txt.gz
Cloud_Cover
5 4 5 5 5 6 13 92 52 28 100 100 100 100 100 100 100 100 100 100 100 100
25 5 10 40 50 7 43 22 5 37 25 100 100 100 100 100 100 100 100 100 100 100
31 5 5 14 6 3 0 0 0 39 48 97 100 100 100 100 100 100 100 100 100 100
5 5 4 1 0 0 2 24 38 53 36 93 100 100 100 100 100 100 100 100 100 100
0 0 0 15 0 0 36 60 98 92 100 100 99 84 100 100 100 100 100 100 100 100
0 0 0 0 0 0 3 85 99 100 100 100 97 46 81 100 100 100 100 100 100 100
4 16 19 5 0 1 64 99 100 99 89 94 89 39 100 100 100 100 100 100 100 100
48 38 30 13 37 46 98 100 100 100 100 85 57 98 100 100 100 100 100 100 100 100
58 46 63 66 96 96 100 100 100 100 100 100 94 100 100 100 100 100 100 100 100 100
60 64 88 100 100 100 100 100 100 100 100 100 100 100 100 100 100 100 100 100 100 100
100 95 100 100 100 100 100 100 100 100 100 100 100 100 100 100 100 100 100 100 100 100
100 100 100 100 100 100 100 100 100 100 100 100 100 100 100 100 100 100 100 100 98 100
100 100 100 100 100 100 100 100 100 100 100 91 89 92 99 100 100 100 100 100 100 100
100 100 100 100 100 100 100 97 78 66 42 40 90 100 100 100 100 100 100 100 100 100

GFSNIL_prec_cloud_048.txt.gz
Cloud_Cover
14 43 32 5 5 5 5 5 14 98 46 100 100 100 100 100 84 100 100 100 100 100
5 50 46 5 8 5 4 0 6 6 29 5 96 100 100 100 100 82 82 100 100 100
77 6 12 5 5 2 4 26 98 68 2 3 62 100 100 100 100 100 100 100 100 100
24 13 5 12 5 44 69 87 18 1 2 0 82 100 100 100 100 100 100 100 100 100
16 5 20 28 5 7 5 0 0 4 39 100 100 100 100 100 100 96 100 100 100 100
40 10 6 70 5 3 0 0 0 4 67 100 100 100 100 100 99 100 100 100 100 100
5 50 24 4 0 0 0 12 96 100 100 100 100 96 94 55 71 100 98 100 100 100
6 4 19 34 43 45 20 2 73 99 100 100 100 100 100 100 99 99 98 100 100 100
36 97 100 100 100 100 100 96 59 99 100 100 100 100 97 51 87 98 100 100 100 100
100 100 100 100 100 100 100 100 100 99 100 100 100 100 100 75 93 100 100 100 100 100
92 97 100 100 100 100 100 100 100 100 100 100 100 100 100 80 55 75 100 100 100 100
100 100 100 100 100 100 100 100 100 100 100 100 100 100 98 89 98 100 100 98 100 100
100 100 100 100 100 100 100 100 100 88 39 6 7 19 13 5 5 12 62 98 94 99
100 100 100 100 100 100 82 15 47 89 20 5 3 5 5 0 0 0 0 1 4 4

GFSNIL_prec_cloud_051.txt.gz
Cloud_Cover
100 72 77 96 33 5 5 5 5 5 14 68 5 5 3 97 100 88 92 100 100 100
100 100 100 100 82 21 18 66 64 49 12 5 6 6 74 100 100 100 53 75 100 100
98 96 93 94 49 34 64 24 52 5 22 5 6 5 17 95 100 100 98 100 100 100
99 96 49 8 7 84 53 23 12 30 21 7 10 5 22 26 35 100 100 98 100 100
98 28 7 33 51 98 86 61 23 15 21 5 3 4 38 99 100 100 100 100 100 100
42 95 31 75 100 100 41 5 13 5 7 14 93 100 100 100 100 100 100 100 100 100
100 100 100 100 54 5 5 5 5 27 100 100 100 100 100 100 82 100 100 100 100 100
100 99 96 100 94 65 30 14 0 12 88 100 100 100 87 23 32 72 100 100 100 100
100 100 100 100 100 100 100 100 100 100 83 100 100 100 100 47 82 78 100 100 100 100
100 100 97 100 100 100 100 100 100 100 100 100 100 100 100 90 100 100 100 100 100 99
93 100 100 100 100 100 100 100 100 100 100 100 100 100 100 100 80 100 100 92 82 47
100 100 100 100 100 100 100 100 100 100 100 97 80 64 24 27 20 7 14 5 3 0
100 100 100 100 100 100 100 100 33 23 13 4 5 3 0 4 4 3 4 4 0 0
100 100 100 100 100 78 36 71 77 57 41 5 1 5 5 0 0 0 0 0 1 5

GFSNIL_prec_cloud_054.txt.gz
Cloud_Cover
6 25 62 98 100 100 64 25 9 5 5 5 22 96 5 5 44 92 82 72 59 26
83 99 100 100 99 99 67 41 26 17 18 95 97 5 13 5 5 10 100 89 100 96
73 92 100 100 98 99 60 18 55 40 74 66 34 14 38 14 16 6 24 63 100 99
96 100 100 100 100 100 100 98 64 94 66 5 26 48 39 9 8 28 47 54 100 100
100 100 100 100 100 87 98 98 100 55 7 18 44 28 14 5 3 0 99 100 100 100
100 100 100 99 100 93 100 100 65 47 6 47 28 30 78 100 100 100 100 100 100 100
100 100 100 100 97 79 99 93 29 24 50 21 100 100 100 100 100 100 100 98 100 95
100 100 100 100 100 97 100 100 50 90 98 75 72 71 50 37 61 97 100 100 97 100
80 99 100 100 100 100 100 100 100 99 100 100 100 100 100 100 100 100 100 100 100 100
100 100 100 100 100 100 100 100 100 100 100 100 100 100 100 100 100 100 100 95 40 42
100 100 100 100 100 100 100 100 100 100 100 100 100 100 100 70 100 94 76 70 29 16
100 100 100 100 100 100 100 100 100 100 100 60 8 5 5 13 12 5 5 5 1 0
100 100 100 100 100 100 100 40 24 15 18 5 5 5 3 1 0 5 2 0 0 2
100 100 100 100 100 100 95 90 66 78 28 5 5 5 5 3 1 5 5 5 5 6

GFSNIL_prec_cloud_057.txt.gz
Cloud_Cover
89 98 96 98 100 100 100 100 100 100 100 89 32 57 73 71 60 43 38 44 62 81
100 92 99 100 100 100 69 97 81 83 50 100 36 98 26 92 95 92 74 100 66 31
100 100 100 100 98 100 97 96 90 100 100 100 100 100 53 54 54 66 99 69 100 100
100 100 100 100 100 100 100 100 100 100 100 100 93 98 37 65 22 17 76 22 43 31
100 100 100 100 100 100 100 100 100 100 100 72 80 36 16 8 31 72 50 86 21 93
98 100 92 96 100 93 100 99 100 86 94 42 54 13 42 94 71 73 98 100 100 100
100 100 100 100 100 100 100 100 100 74 96 38 32 74 99 100 100 100 100 99 97 64
100 100 100 100 100 100 100 100 99 89 97 100 100 97 100 100 100 100 100 100 100 100
100 100 100 100 100 100 100 100 100 100 100 100 100 100 100 100 100 100 100 100 96 100
100 100 100 100 100 100 100 100 100 100 100 100 100 100 100 99 100 100 78 88 100 61
94 99 100 100 100 100 100 100 100 100 100 97 87 89 63 66 50 47 61 41 5 5
100 100 100 100 100 100 100 100 100 100 29 5 5 4 4 15 7 91 23 5 0 1
100 100 100 100 100 100 100 90 19 7 7 5 5 5 4 4 5 5 5 0 4 5
100 100 100 100 100 100 100 42 60 96 14 5 2 4 5 3 4 5 5 5 43 52

GFSNIL_prec_cloud_060.txt.gz
Cloud_Cover
100 100 100 100 100 100 100 100 100 100 100 100 100 100 98 100 100 100 100 100 100 97
100 100 100 100 100 100 100 100 100 100 100 100 100 100 100 100 100 100 100 100 100 100
96 100 100 100 100 100 100 100 100 100 100 100 100 100 100 100 100 100 100 100 100 100
88 97 100 100 100 100 100 100 100 100 100 100 100 60 99 100 36 57 87 95 74 32
100 90 100 100 100 100 100 100 100 100 100 100 87 68 80 50 7 53 31 5 35 33
5 80 95 100 100 99 100 100 100 100 100 97 99 95 93 91 92 99 49 70 100 100
5 39 100 100 100 100 98 92 100 91 99 100 100 87 100 100 100 100 100 100 100 80
100 100 100 100 100 100 100 100 100 100 100 100 100 100 100 100 100 100 100 100 100 100
100 100 100 100 100 100 100 100 100 100 100 100 100 100 100 100 100 100 100 100 100 100
100 100 100 100 100 100 100 100 100 100 100 100 100 100 100 100 100 6 65 74 32 7
100 100 100 100 100 100 100 100 100 100 100 100 100 100 100 77 5 24 19 5 5 5
100 100 100 100 100 100 100 100 100 100 100 100 100 99 14 5 5 5 5 1 1 5
100 100 100 100 100 100 100 100 100 100 100 100 100 91 3 0 0 0 1 5 5 36
100 100 100 100 100 100 100 100 100 100 100 100 86 6 5 2 0 0 5 5 10 63

GFSNIL_prec_cloud_063.txt.gz
Cloud_Cover
100 100 100 100 100 100 100 100 100 100 100 100 100 100 100 100 100 100 100 100 100 100
100 100 100 100 100 100 100 100 100 100 100 100 100 100 100 100 100 100 100 100 100 100
100 100 100 100 100 100 100 100 100 100 100 100 100 100 100 100 100 100 100 100 100 100
5 20 82 100 100 100 100 100 100 100 100 100 100 100 100 100 100 100 100 100 100 100
0 2 33 97 100 100 100 100 100 100 100 100 100 100 100 100 100 97 100 63 89 100
21 22 6 18 12 58 100 100 100 100 100 100 100 100 95 85 100 100 100 78 100 100
5 8 89 100 97 87 62 10 5 24 92 83 93 90 100 99 100 100 100 100 100 100
20 63 100 100 100 100 100 100 100 100 100 100 100 100 100 91 100 100 100 100 100 100
96 100 100 100 100 100 100 100 100 100 100 100 100 100 100 100 100 100 100 100 100 100
100 100 100 100 100 100 100 100 100 100 100 100 100 100 100 100 100 100 100 95 90 69
78 100 100 100 100 100 100 100 100 100 100 100 100 100 100 100 100 71 100 59 5 5
100 100 100 100 100 100 100 100 100 100 100 100 100 100 100 100 20 100 100 16 1 0
100 100 100 100 100 100 100 100 100 100 100 100 100 100 100 94 100 100 100 5 0 5
100 100 100 100 100 100 100 100 100 100 100 100 100 100 100 100 100 100 79 5 0 0

GFSNIL_prec_cloud_066.txt.gz
Cloud_Cover
94 100 100 100 100 100 100 100 100 100 100 100 100 100 100 100 100 100 100 100 100 100
80 99 100 100 100 100 100 100 100 100 100 100 100 100 100 100 100 100 100 100 100 100
100 100 100 100 100 100 100 100 100 100 100 100 100 100 100 100 100 100 100 100 100 100
100 100 100 100 100 100 100 100 100 100 100 100 100 100 100 100 100 100 100 100 100 100
77 53 79 100 100 100 100 100 100 100 100 100 100 100 100 100 100 100 100 100 100 99
75 6 18 5 5 18 27 77 88 99 97 99 68 14 6 82 86 86 78 93 100 100
100 99 82 94 78 73 69 98 97 39 49 21 45 35 30 52 57 100 100 100 100 100
23 88 100 100 100 100 100 100 83 94 98 91 100 100 97 100 100 100 100 100 100 100
97 41 83 100 94 100 100 100 100 100 100 100 100 100 100 100 100 100 100 100 100 100
70 99 100 100 100 100 100 100 100 100 100 100 100 100 100 100 100 100 100 100 100 100
53 79 100 92 100 100 100 100 100 100 100 100 100 100 100 100 100 100 96 100 92 34
100 98 92 99 100 100 100 100 100 100 100 100 100 100 100 100 98 89 100 100 100 98
100 100 100 100 100 100 100 100 100 100 100 100 100 100 100 100 100 100 100 100 99 100
98 100 100 100 100 100 100 100 100 100 100 100 100 100 100 100 100 100 100 100 72 100

GFSNIL_prec_cloud_069.txt.gz
Cloud_Cover
60 26 65 87 99 100 100 100 100 100 100 100 100 100 100 100 100 100 100 100 100 100
100 100 100 100 88 86 100 100 100 100 100 100 100 100 100 100 100 100 100 100 100 100
100 93 64 100 89 100 100 100 90 100 100 100 100 100 100 100 100 100 100 100 100 100
94 100 100 94 98 93 100 98 100 100 100 100 100 100 100 100 100 100 100 100 100 100
100 100 100 100 100 100 97 65 79 91 100 100 100 100 100 100 100 100 100 100 100 100
100 100 100 100 100 100 100 100 100 25 29 62 40 88 99 99 97 100 100 100 100 100
100 100 100 100 100 100 100 100 100 100 100 82 19 17 17 29 63 83 94 92 100 100
100 99 77 100 100 100 100 90 54 78 100 100 93 100 100 100 100 100 100 100 100 100
100 100 100 100 90 88 100 100 100 100 100 100 100 100 100 100 100 100 100 100 100 100
4 4 42 99 100 100 92 100 100 100 100 100 100 100 100 100 100 100 100 100 100 100
1 4 98 100 100 100 99 100 100 100 100 100 100 100 100 100 100 100 100 100 100 100
47 54 100 100 100 100 100 100 100 100 100 100 100 100 100 100 100 100 100 100 100 100
89 100 100 100 100 100 100 100 100 100 100 100 100 100 100 100 100 100 100 100 100 100
100 100 100 100 100 100 100 100 100 100 100 100 100 100 100 100 100 100 100 100 100 100

GFSNIL_prec_cloud_072.txt.gz
Cloud_Cover
100 100 100 100 100 100 68 100 100 100 100 100 100 100 100 100 100 100 100 100 100 100
100 100 100 100 100 98 61 73 94 100 100 100 100 100 100 100 100 100 100 100 100 100
100 100 100 100 100 97 93 94 90 93 100 100 100 99 76 98 99 99 100 100 100 99
82 100 100 100 100 100 99 99 95 92 94 99 95 100 94 86 84 97 100 100 100 100
100 100 100 100 100 100 100 100 100 100 96 93 73 99 98 100 94 95 75 42 88 98
100 100 100 100 100 100 100 100 100 100 100 93 100 84 95 100 100 100 83 60 100 95
52 100 99 100 100 100 100 100 90 100 100 100 100 90 96 100 86 89 91 93 17 100
0 0 8 96 26 16 91 82 100 92 79 100 91 98 96 100 100 100 100 96 100 100
0 0 0 5 5 5 5 21 100 100 100 100 100 100 100 100 100 100 100 100 100 100
0 0 0 0 33 100 100 96 56 88 100 100 100 100 100 100 100 100 100 100 100 100
5 5 5 5 83 100 100 84 60 88 100 100 100 100 100 100 100 100 100 100 100 100
5 5 5 6 100 100 100 100 93 100 100 100 100 100 99 91 99 65 100 100 100 100
52 5 6 45 100 100 100 100 100 100 100 100 100 100 100 100 100 100 92 100 100 100
14 6 38 100 100 100 100 100 100 100 100 100 97 100 100 100 100 100 100 100 100 100

GFSNIL_prec_cloud_075.txt.gz
Cloud_Cover
88 100 100 100 100 100 100 100 100 100 99 96 68 88 100 100 100 100 100 100 100 100
94 100 100 100 100 100 93 88 99 100 100 90 72 38 15 22 55 83 93 100 100 100
100 100 100 100 100 100 100 77 73 74 99 86 93 81 48 54 10 46 40 73 100 96
100 100 100 100 100 100 95 100 100 88 97 80 98 93 88 58 46 95 96 78 98 85
68 90 100 98 100 100 100 99 100 100 100 100 100 99 92 58 72 69 78 88 80 78
76 100 23 28 58 100 18 59 68 74 97 99 100 100 99 99 75 79 93 81 87 96
1 67 96 70 93 98 9 1 2 84 100 100 100 99 81 100 100 100 99 88 100 100
0 0 0 0 0 1 0 12 68 60 100 100 100 100 100 80 99 100 100 86 100 100
0 0 0 0 0 0 0 0 0 0 0 37 100 100 100 100 100 100 100 100 100 100
0 0 0 0 0 0 2 90 9 0 15 17 100 100 100 100 100 100 100 100 100 100
5 5 20 18 5 5 79 100 100 94 84 100 100 100 100 100 100 100 100 100 100 87
72 5 10 25 5 11 100 100 100 100 100 100 100 100 100 100 100 100 100 100 100 92
71 6 43 25 19 53 100 100 100 100 100 100 100 100 73 97 100 100 96 100 100 100
63 62 15 21 17 100 100 100 100 100 100 100 100 100 99 100 100 100 100 100 100 100

GFSNIL_prec_cloud_078.txt.gz
Cloud_Cover
100 100 100 100 100 100 100 100 100 100 100 100 95 83 84 98 96 97 100 100 100 100
100 100 100 100 100 100 100 100 100 100 100 100 100 100 100 100 100 100 100 100 100 100
100 100 100 92 100 100 100 100 100 84 96 90 82 75 100 100 100 100 96 73 82 61
60 100 100 100 100 100 100 100 89 84 95 100 100 100 71 84 100 48 60 50 8 58
5 23 78 99 100 100 100 100 100 100 100 100 100 100 100 100 100 90 92 96 99 100
0 0 36 79 98 98 100 97 45 14 100 100 94 87 71 25 85 100 100 73 76 99
0 0 0 1 66 3 36 23 5 75 96 82 82 68 97 100 62 7 4 5 100 96
0 0 0 0 0 0 0 0 0 0 9 23 1 2 86 58 88 100 100 100 48 45
0 0 0 0 0 0 0 0 0 0 0 0 0 0 86 100 100 100 100 88 100 100
0 0 0 0 0 0 0 0 1 0 0 0 0 8 87 100 100 100 100 100 100 100
1 2 2 5 4 0 3 5 86 84 74 54 16 93 94 100 100 100 100 100 100 100
5 6 58 48 5 5 6 18 99 100 100 100 95 86 100 100 100 100 100 100 100 100
5 40 95 84 79 92 68 64 100 100 100 100 100 100 100 100 100 100 98 92 96 90
5 83 94 91 82 93 100 100 100 100 100 100 100 100 100 100 37 6 71 85 100 100

GFSNIL_prec_cloud_081.txt.gz
Cloud_Cover
100 100 100 100 100 100 100 100 100 100 100 100 100 100 90 60 100 100 100 100 100 100
100 100 100 100 100 100 100 100 100 100 100 100 100 100 99 100 100 100 100 100 100 100
12 75 100 100 100 100 100 100 100 100 100 100 100 100 100 100 100 100 100 100 94 96
100 100 100 80 65 100 99 100 100 100 100 100 85 62 96 84 56 76 93 90 90 79
0 6 34 97 100 100 100 100 100 100 100 100 100 100 100 100 100 58 61 97 69 50
0 0 0 0 0 0 29 91 83 21 7 84 74 79 81 99 100 72 78 12 10 84
0 0 0 0 0 0 0 0 0 0 0 3 13 11 2 2 2 0 3 12 8 5
0 0 0 0 0 0 0 0 0 0 0 0 0 0 0 0 30 97 100 100 100 100
8 0 0 0 0 0 0 0 0 0 0 0 0 0 0 8 17 100 100 100 100 100
10 5 0 0 0 0 0 1 0 0 0 0 0 0 39 50 45 100 100 100 100 100
8 2 0 0 0 0 5 3 0 0 42 59 21 14 100 98 99 100 100 100 100 100
5 0 0 0 0 5 5 5 5 6 86 100 100 100 100 100 100 100 100 100 100 100
13 1 1 1 5 5 5 5 91 94 100 100 100 100 98 100 96 100 100 100 100 69
86 34 5 5 5 11 98 78 94 100 100 100 100 95 97 100 100 99 93 56 6 22

GFSNIL_prec_cloud_084.txt.gz
Cloud_Cover
100 100 100 100 100 100 100 100 100 100 100 100 100 100 100 100 100 100 100 100 100 100
92 100 100 100 100 100 100 100 100 100 100 100 100 100 100 100 100 100 98 96 100 100
100 100 88 100 100 100 100 100 100 100 100 100 100 100 100 100 100 100 100 100 100 100
100 100 100 100 100 100 100 100 100 100 100 100 100 100 100 100 100 100 100 100 100 100
100 100 100 100 100 100 100 100 100 100 100 100 100 100 96 100 100 100 100 100 49 46
100 100 100 100 100 100 100 100 100 100 100 100 100 100 100 100 85 100 100 100 31 4
64 100 100 100 100 98 37 81 100 100 96 90 89 50 26 20 2 0 0 6 71 82
3 1 23 18 0 0 0 0 0 0 0 0 0 0 0 0 0 0 0 1 100 100
98 96 5 32 98 100 12 5 2 0 0 0 0 0 0 0 0 0 0 24 100 100
100 97 96 99 99 59 21 45 5 3 0 0 0 0 2 92 99 26 9 96 100 100
100 100 100 100 100 100 100 54 5 3 2 0 2 2 62 100 100 100 99 100 100 100
100 70 99 100 100 100 16 5 4 5 5 5 91 100 54 100 100 68 20 100 100 100
100 100 100 100 100 95 10 9 100 100 30 48 99 100 100 100 100 98 29 100 100 100
100 100 100 100 11 5 92 48 90 21 76 98 96 100 100 100 100 97 76 100 100 88

GFSNIL_prec_cloud_087.txt.gz
Cloud_Cover
100 100 100 100 100 100 100 100 100 100 100 100 100 100 100 100 100 100 100 100 100 100
100 100 100 100 100 100 100 100 100 100 100 100 100 100 100 100 100 100 100 100 100 100
100 100 100 100 100 100 100 100 100 100 100 100 100 100 100 100 100 100 100 100 100 100
100 100 100 100 100 100 100 100 100 100 100 100 100 100 100 100 100 100 100 100 100 100
100 100 100 100 100 100 100 100 100 100 100 100 100 100 100 100 100 100 100 100 100 89
100 100 100 100 100 100 100 100 100 100 100 100 92 100 100 97 94 91 62 100 80 65
94 87 82 99 100 100 100 100 100 100 100 100 100 100 100 100 100 87 98 100 71 16
100 100 100 100 100 100 100 100 100 100 100 100 44 81 100 95 96 100 95 7 32 20
31 96 99 100 100 100 100 100 100 100 100 100 100 79 39 5 5 5 5 5 5 34
86 43 5 3 1 33 8 37 100 100 40 9 25 71 6 42 86 32 20 6 18 46
76 85 96 100 100 100 100 100 100 71 27 100 89 60 88 71 100 100 100 95 26 49
87 95 100 100 100 100 100 100 90 100 100 70 100 76 86 98 100 100 47 10 13 63
47 72 24 6 76 98 100 100 100 100 100 100 100 96 100 100 100 100 100 14 10 89
100 98 100 99 100 100 100 100 100 100 100 100 100 68 100 100 100 97 91 83 44 94

GFSNIL_prec_cloud_090.txt.gz
Cloud_Cover
100 100 100 100 100 100 100 100 100 100 100 100 100 100 100 100 100 100 100 100 100 100
100 100 100 100 100 100 100 100 100 100 100 100 100 100 100 100 100 100 100 100 100 100
100 100 100 100 100 100 100 100 100 100 100 100 100 100 100 100 100 100 100 100 100 100
100 86 100 100 85 100 100 100 100 100 100 100 100 100 100 100 100 100 100 100 100 100
100 74 30 99 99 100 100 100 100 100 100 100 100 100 100 100 100 100 100 100 100 100
100 100 89 92 100 100 100 100 100 100 100 100 100 100 100 100 100 100 100 100 100 98
100 100 100 100 100 100 100 100 100 100 100 96 100 100 100 100 91 100 85 44 70 100
100 100 100 97 96 100 100 100 100 100 100 98 99 100 100 100 100 100 90 83 92 46
99 100 100 100 100 100 100 100 100 92 98 100 100 100 98 100 100 100 100 100 97 25
100 100 100 100 100 100 100 100 100 100 100 100 100 100 100 86 48 58 50 16 18 48
15 40 67 99 100 100 100 88 96 79 96 72 52 29 97 100 96 100 100 88 82 66
2 2 27 100 99 84 99 100 100 100 100 100 100 100 100 100 100 84 98 67 58 56
0 4 22 44 27 11 48 75 86 100 100 100 100 100 100 99 100 100 100 84 85 22
0 1 37 61 76 100 89 100 100 100 100 100 100 100 100 100 100 100 100 100 88 33

GFSNIL_prec_cloud_093.txt.gz
Cloud_Cover
100 100 100 100 100 100 100 100 100 100 100 100 100 100 100 100 100 89 100 100 100 100
100 100 100 100 100 100 100 100 100 100 100 100 100 100 100 100 100 100 100 100 100 100
100 100 100 100 100 100 100 100 100 100 100 100 100 100 100 100 100 100 100 100 100 100
100 100 100 100 100 100 100 100 100 100 100 100 100 100 100 100 100 100 100 100 100 100
100 100 100 100 100 100 100 100 100 100 100 100 100 100 100 100 100 100 100 100 100 100
100 100 100 100 100 100 100 100 100 100 100 100 69 93 100 100 100 100 100 100 100 100
100 100 100 100 100 100 100 100 100 100 100 100 100 100 100 100 100 100 100 94 79 100
100 72 44 17 17 56 96 100 100 100 100 100 100 100 100 100 96 100 100 100 100 99
100 100 100 100 100 100 100 100 100 100 92 100 21 30 26 90 99 92 100 100 56 37
100 100 100 95 56 95 100 100 88 96 100 100 100 100 60 96 100 100 94 84 99 100
99 77 58 100 100 100 100 100 100 60 89 66 43 100 100 100 92 100 100 100 100 100
100 26 5 59 7 64 66 43 24 54 96 77 100 100 100 100 100 100 100 100 100 99
100 98 95 92 91 100 75 9 5 21 33 44 24 6 26 100 100 100 100 100 100 100
35 41 33 3 88 90 100 99 75 87 100 52 98 97 97 82 96 100 100 100 100 100

GFSNIL_prec_cloud_096.txt.gz
Cloud_Cover
100 100 100 100 100 100 100 100 100 100 100 100 100 100 100 100 100 100 100 73 100 100
100 100 100 100 100 100 100 100 100 100 100 100 100 100 100 100 100 100 100 100 100 100
100 100 100 100 100 100 100 100 100 100 100 100 100 100 100 100 100 100 100 100 100 100
100 100 100 100 100 100 100 100 100 100 100 100 100 100 100 100 100 100 100 100 100 100
100 100 100 100 100 100 100 100 100 100 100 100 100 100 100 100 100 100 100 100 100 100
100 100 100 100 100 100 100 100 100 100 100 100 100 100 100 100 100 100 100 100 100 100
100 100 100 100 100 100 100 100 100 100 100 100 100 100 100 100 100 100 100 100 100 100
100 100 100 100 100 100 100 100 100 100 100 100 100 100 100 100 100 100 100 100 100 100
100 100 100 100 100 100 100 100 100 100 100 100 100 100 100 100 100 100 100 100 100 100
100 100 100 100 100 100 100 100 100 100 100 100 100 100 99 99 100 100 100 100 100 100
100 100 98 100 100 100 100 100 100 100 100 100 82 62 59 95 85 100 99 100 100 100
100 100 100 100 100 100 100 100 100 100 100 100 100 96 100 100 100 100 100 100 100 100
100 100 100 100 100 100 100 100 100 100 100 100 100 100 100 100 100 100 100 100 97 57
100 100 100 100 100 100 100 100 100 100 100 100 100 100 100 100 100 100 100 100 100 100

GFSNIL_prec_cloud_099.txt.gz
Cloud_Cover
100 100 100 100 100 100 100 100 100 100 100 100 100 100 100 100 100 100 100 100 100 100
100 100 100 100 100 100 100 100 100 100 100 100 100 100 100 100 100 100 100 100 100 100
100 100 100 100 100 100 100 100 100 100 100 100 100 100 100 100 100 100 100 100 100 100
100 100 100 100 100 100 100 100 100 99 95 100 100 100 100 100 100 100 100 100 100 100
100 100 100 100 100 100 100 100 100 100 100 100 100 100 100 100 100 100 100 100 100 100
100 100 100 100 100 100 100 100 100 100 100 100 100 100 100 100 100 100 100 100 100 100
100 100 100 100 100 100 100 100 100 100 100 100 100 100 100 100 100 100 100 100 100 100
100 100 100 100 100 100 100 100 100 100 100 100 100 100 100 100 100 100 100 100 100 100
100 100 100 100 100 100 100 100 100 100 100 100 100 100 100 100 100 100 100 100 100 100
100 100 100 100 100 100 100 100 95 100 100 78 100 100 100 100 100 100 100 100 100 100
100 100 100 100 100 100 100 100 100 100 100 100 100 100 100 100 100 100 100 100 96 100
100 100 100 100 100 100 100 100 100 100 100 100 100 100 100 100 100 100 100 100 100 100
100 100 100 100 100 100 100 100 100 100 100 100 100 100 100 100 100 100 100 100 100 100
28 2 2 41 54 90 100 100 100 100 100 100 100 100 100 100 100 100 100 99 100 96

GFSNIL_prec_cloud_102.txt.gz
Cloud_Cover
100 100 100 100 100 100 100 100 100 100 100 100 100 100 100 100 100 100 100 100 100 100
100 100 100 100 100 100 100 100 100 100 100 100 100 100 100 100 99 100 100 100 100 100
100 100 100 100 100 100 100 100 100 100 100 100 100 100 100 100 100 100 100 100 100 100
100 100 100 100 100 100 100 100 100 100 100 100 100 100 100 100 100 100 100 100 100 100
100 100 100 100 100 100 100 100 100 100 100 100 100 100 100 100 100 100 100 100 100 100
100 100 100 100 100 100 100 100 100 100 100 100 100 100 100 100 100 100 100 100 100 100
100 100 100 100 100 100 100 100 100 100 100 100 100 100 100 100 100 100 100 100 100 100
100 100 100 100 100 100 100 100 100 100 100 100 100 100 100 100 100 100 100 100 100 100
100 100 100 100 100 100 100 100 100 100 100 100 100 100 100 100 100 100 100 100 100 100
100 100 100 100 100 100 100 100 100 100 100 100 100 100 100 100 100 100 100 100 100 100
100 100 100 100 100 100 100 100 100 100 100 100 100 100 100 100 100 100 100 100 100 100
100 100 100 100 100 100 100 100 100 100 100 100 100 100 100 100 100 100 100 100 100 100
100 100 100 100 100 100 100 100 100 100 100 100 100 100 100 100 100 100 100 99 100 100
74 99 100 100 97 100 100 97 91 88 94 96 78 100 63 39 100 100 100 100 100 100

GFSNIL_prec_cloud_105.txt.gz
Cloud_Cover
100 100 100 100 100 100 100 100 100 100 100 100 100 100 100 100 100 100 100 100 100 100
100 100 100 100 100 100 100 100 100 100 100 100 100 100 100 100 100 100 100 100 100 100
100 100 100 100 100 100 100 100 100 100 100 100 100 100 100 100 100 100 97 100 100 99
100 100 100 100 100 100 100 100 100 100 100 100 100 100 100 100 100 100 100 100 100 100
100 100 100 100 100 100 100 100 100 100 100 100 100 100 100 100 100 100 100 100 100 100
100 100 100 100 100 100 100 100 100 100 100 100 100 100 100 100 100 100 100 100 100 100
100 100 100 100 100 100 100 100 100 100 100 100 100 100 100 100 100 100 100 100 100 100
100 100 100 100 100 100 100 100 100 100 100 100 100 100 100 100 100 100 100 100 100 100
100 100 100 100 100 100 100 100 100 100 100 100 100 100 100 100 100 100 100 100 100 100
100 100 100 100 100 100 100 100 100 100 100 100 100 100 100 100 100 100 100 100 100 100
100 100 100 100 100 100 100 100 100 100 100 100 100 100 100 100 100 100 100 100 100 100
100 98 100 100 100 100 100 100 100 100 100 100 100 100 100 100 100 100 100 100 100 100
99 100 100 100 100 100 100 100 100 100 100 92 100 100 100 100 100 100 100 100 100 100
88 100 100 100 100 100 100 100 100 98 100 100 100 100 100 100 100 100 100 100 100 100

GFSNIL_prec_cloud_108.txt.gz
Cloud_Cover
32 34 80 100 100 78 77 100 100 100 100 100 100 100 100 100 100 100 100 100 100 100
87 95 100 100 99 98 100 100 100 100 100 100 100 100 100 100 100 100 100 100 100 100
100 100 100 100 100 100 100 100 100 100 100 100 100 100 100 100 100 100 100 100 100 100
100 100 100 100 100 100 100 100 100 100 100 100 100 100 100 100 100 100 100 100 100 100
100 100 100 100 100 100 100 100 100 100 100 100 100 100 100 100 100 100 100 100 100 100
100 100 100 100 100 100 100 100 100 100 100 100 100 100 100 100 100 100 100 100 100 100
100 100 100 100 100 100 100 100 100 100 100 100 100 100 100 100 100 100 100 100 100 100
100 100 100 100 100 100 100 100 100 100 100 100 100 100 100 100 100 100 100 100 100 100
100 100 100 100 100 100 100 100 100 100 100 100 100 100 100 100 100 100 100 100 100 100
100 100 100 100 100 100 100 100 100 100 100 100 100 100 100 100 100 100 100 100 100 100
100 100 100 100 100 100 100 100 100 100 100 100 100 100 100 100 100 100 100 100 100 100
100 100 100 100 100 100 100 100 100 100 100 100 100 100 100 99 100 100 100 100 100 100
100 100 100 100 100 100 99 83 36 25 45 22 100 100 100 100 100 100 100 100 100 100
100 100 100 100 96 64 81 93 100 100 100 100 100 81 100 98 69 80 96 99 100 99

GFSNIL_prec_cloud_111.txt.gz
Cloud_Cover
57 67 52 42 68 92 98 72 92 99 99 99 100 100 100 100 60 100 100 100 100 100
35 53 28 69 66 73 82 92 100 98 100 100 100 100 100 100 99 100 100 100 100 100
100 100 99 100 100 100 100 100 100 100 100 100 100 100 100 100 100 100 100 100 100 100
100 100 100 100 100 100 100 100 100 100 100 100 100 100 100 100 100 100 100 100 100 100
100 100 100 100 100 100 100 100 100 100 100 100 100 100 100 100 100 100 100 100 100 100
100 100 100 100 100 100 100 100 100 100 100 100 100 100 100 100 100 100 100 100 100 100
100 100 100 100 100 100 100 100 100 100 100 100 100 100 100 100 100 100 100 100 100 100
100 100 100 100 100 100 100 100 100 100 90 100 100 100 100 100 100 100 100 100 100 100
100 100 100 100 100 100 100 100 100 100 100 100 100 100 100 100 100 100 100 100 100 100
100 100 100 100 100 100 100 100 100 100 100 100 100 100 100 100 100 100 100 100 100 100
100 100 100 100 100 100 100 100 60 100 100 100 100 100 100 100 100 100 100 100 100 100
87 100 100 88 78 70 63 98 100 69 92 82 100 97 83 100 84 57 58 97 100 100
100 100 100 91 100 100 100 100 100 53 76 85 76 19 42 39 91 92 7 36 28 59
56 90 100 100 100 100 100 100 100 96 100 79 86 54 19 76 92 98 91 95 70 84

GFSNIL_prec_cloud_114.txt.gz
Cloud_Cover
0 100 99 59 34 21 100 100 100 100 100 88 95 100 100 100 100 100 100 100 100 77
99 95 89 53 41 24 44 100 100 100 100 99 100 100 100 100 100 100 100 100 100 89
100 99 92 77 100 100 100 100 100 100 100 100 100 100 100 100 100 100 100 100 100 100
100 100 100 98 100 100 100 100 100 100 100 100 100 100 100 100 100 100 100 100 100 100
100 100 100 100 100 100 100 100 100 100 100 100 100 100 100 100 100 100 100 100 100 100
100 100 100 100 99 100 100 100 100 100 100 100 100 100 100 100 100 100 100 100 100 100
100 100 100 100 100 100 100 100 100 100 100 100 100 100 100 100 100 100 100 100 100 100
100 100 100 100 100 100 100 100 100 100 99 99 100 100 100 100 100 100 100 100 100 100
100 100 100 100 100 100 100 100 100 100 100 100 100 100 100 100 100 100 100 100 100 100
100 100 100 100 100 100 100 100 100 100 100 100 100 100 100 100 100 100 100 100 100 100
100 100 100 100 100 100 100 100 100 100 100 100 100 100 100 100 100 100 100 100 100 100
100 100 100 100 100 100 100 100 100 100 99 100 100 100 98 81 100 100 100 100 100 99
100 100 100 100 93 100 100 100 100 68 43 21 13 61 92 65 88 100 67 93 79 58
63 66 94 100 100 100 100 100 100 100 100 100 100 100 93 87 70 87 88 93 81 88

GFSNIL_prec_cloud_117.txt.gz
Cloud_Cover
0 0 0 0 0 85 100 100 100 91 100 56 73 100 100 99 100 100 100 100 100 100
3 5 2 5 64 37 43 96 64 15 22 95 56 67 100 100 100 100 100 100 100 100
92 100 100 100 100 100 98 100 100 100 89 95 93 99 100 100 100 100 100 100 100 100
100 100 100 100 100 100 100 100 100 100 100 100 100 100 100 100 100 100 100 100 100 100
100 100 100 100 100 100 100 100 100 100 100 100 100 100 100 100 100 100 100 100 100 100
100 100 100 100 100 98 100 100 100 100 74 100 100 100 100 100 100 100 100 100 100 100
100 100 100 100 100 100 100 100 100 99 100 100 100 100 100 100 100 100 100 100 100 100
100 100 100 100 100 100 100 100 100 100 100 100 100 100 100 100 100 100 100 100 100 100
100 100 100 100 100 100 100 100 100 100 100 100 100 100 100 100 100 100 90 100 100 100
100 100 100 100 100 100 100 100 100 100 100 100 100 92 100 100 100 100 100 100 100 100
100 100 100 99 100 100 100 100 100 100 100 100 100 100 100 100 100 100 100 100 100 100
100 100 100 100 100 100 100 100 100 100 100 100 100 100 100 100 100 100 100 100 100 100
93 100 100 100 100 100 100 100 100 100 100 100 100 100 100 100 100 100 100 100 100 75
26 42 98 100 100 100 100 100 100 100 100 100 100 92 72 64 100 100 100 100 80 96

GFSNIL_prec_cloud_120.txt.gz
Cloud_Cover
68 5 0 0 0 0 0 0 5 5 83 100 100 100 100 100 100 100 100 100 100 100
100 94 54 60 61 89 54 23 32 20 77 93 98 100 100 100 100 100 100 100 100 91
100 99 96 84 100 100 98 77 93 92 69 100 100 99 100 100 100 100 100 100 100 100
100 100 100 100 100 100 100 100 100 100 100 100 100 100 100 100 100 100 100 100 100 100
100 100 100 100 100 100 100 100 100 100 100 100 100 100 100 100 100 100 77 100 100 100
100 100 100 100 100 100 100 100 100 100 100 97 100 100 86 100 95 100 100 100 100 100
100 100 100 100 100 100 100 100 100 100 100 100 79 100 100 100 100 100 100 100 100 100
100 100 100 100 100 100 100 100 100 100 100 100 100 100 100 100 100 100 100 100 100 100
100 100 100 100 100 100 100 100 100 100 100 100 100 100 100 100 100 100 100 100 100 100
100 100 100 100 100 100 100 100 100 100 100 100 100 100 100 100 100 100 100 100 100 100
100 100 100 100 100 100 100 100 100 100 100 100 100 100 100 100 100 100 100 100 100 100
100 100 100 100 100 100 100 100 100 100 100 100 100 100 100 100 100 100 100 100 100 100
18 81 100 100 100 100 100 100 100 100 100 100 100 100 100 100 100 100 100 100 100 100
5 6 66 73 100 100 100 100 99 100 100 100 100 100 100 100 100 100 100 100 100 100